Погода в Каяани

Финляндия     64°13′06″N   27°44′06″E
темп.,
°C
ветер,
м/с
пор.,
м/с
влажн.,
%
обл.,
%
осадки,
мм/ч
давл.,
гПа
погр.,
м
30 ноября, вт
вт3023:00−10в51483100 0.0 1007579
02:00−10всв51481100 0.0 1003684
05:00−9всв61481100 0.0 999891
08:00−8св61491100 0.4 9951021
11:00−7св71491100 0.9 9911109
14:00−7св61393100 2.9 9871118
17:00−7ссв61293100 2.8 9851003
20:00−8ссв71293100 5.4 984965
1 декабря, ср
ср123:00−9с61393100 1.9 984790
02:00−9с51194100 3.5 984674
05:00−9ссз51094100 0.7 984614
08:00−9сз5995100 1.5 984532
11:00−9сз4895100 0.7 985428
14:00−10зсз489599 1.2 985432
17:00−11з489697 0.1 986301
20:00−12з3897100 0.2 987225
2 декабря, чт
чт223:00−13зюз2798100 0.1 988133
02:00−13зюз2698100 0.2 989117
05:00−14зюз2499100 0.1 99063
08:00−17зюз11100100 0.1 9929
11:00−17ююз1110096 0.1 9949
14:00−18вюв1110084 0.1 9969
17:00−18всв1110095 0.0 9979
20:00−19всв1110099 0.0 9999
3 декабря, пт
пт323:00−14св119879 0.1 99939
02:00−9св299794 0.1 999255
05:00−7всв4119390 0.1 1000470
08:00−7всв5139391 0.2 1001601
11:00−7всв5129083 0.2 1002648
14:00−7всв5138798 0.2 1003866
17:00−8всв6148197 0.0 1003987
20:00−9всв7148193 0.0 1003892
4 декабря, сб
сб423:00−9всв6148398 0.0 1004827
02:00−10всв7158597 0.1 1004809
05:00−10всв6158699 0.1 1004822
08:00−10всв61487100 0.1 1005873
11:00−10всв6138899 0.1 1006893
14:00−9всв5139198 0.3 1008834
17:00−9всв51288100 0.1 1010743
20:00−9всв51288100 0.2 1013787